Regional Weather Roundup
Issued by NWS

Home | Current Version | Previous Version | Graphics & Text | Print | Product List | Glossary On
Versions: 1 2 3 4 5 6 7 8 9 10 11 12 13 14 15 16 17 18 19 20 21 22 23 24 25 26 27 28 29 30 31 32 33 34 35 36 37 38 39 40 41 42 43 44 45 46 47 48 49 50
000
ASUS43 KDTX 181001
RWRMI
MICHIGAN HOURLY REGIONAL WEATHER ROUNDUP
NATIONAL WEATHER SERVICE DETROIT/PONTIAC MI
500 AM EST WED JAN 18 2017

NOTE: "FAIR" INDICATES FEW OR NO CLOUDS BELOW 12,000 FEET WITH NO
SIGNIFICANT WEATHER AND/OR OBSTRUCTION TO VISIBILITY.

MIZ047>049-052>055-059>063-066>070-074>076-081>083-181100-
SOUTHEAST LOWER MICHIGAN

CITY           SKY/WX    TMP DP  RH WIND       PRES   REMARKS
ADRIAN         CLOUDY    34  34 100 W7        30.01R WCI  28
ALMA           CLOUDY    35  35  99 W7        29.97R FOG     WCI  29
ANN ARBOR      CLOUDY    36  35  96 SW8       29.98R WCI  30
BAD AXE        CLOUDY    33  33 100 NW7       29.94R FOG     WCI  27
CARO           CLOUDY    35  34  98 W7        29.95R FOG     WCI  29
DETROIT        LGT RAIN  37  35  92 W12       29.99R WCI  29
FLINT          CLOUDY    36  35  96 W9        29.96R WCI  29
GROSSE ILE     CLOUDY    37  34  89 W6        29.98R WCI  33
HILLSDALE      CLOUDY    32  32 100 W8        29.98S FOG     WCI  25
HOWELL         CLOUDY    35  34  96 W8        29.97R FOG     WCI  29

CITY           SKY/WX    TMP DP  RH WIND       PRES   REMARKS
JACKSON        CLOUDY    35  34  96 W9        29.99R FOG     WCI  28
LAMBERTVILLE   LGT RAIN  37  35  92 W9        30.01R WCI  30
LANSING        CLOUDY    36  33  89 W12       29.99R FOG     WCI  28
LAPEER         CLOUDY    36  36 100 W7        29.95R FOG     WCI  30
MASON          CLOUDY    35  35 100 W7        29.98R FOG     WCI  29
MONROE         CLOUDY    36  35  97 W10       29.99R WCI  28
MT. CLEMENS    CLOUDY    38  37  99 W8        29.94R WCI  32
PONTIAC        CLOUDY    35  33  92 W8        29.94R FOG     WCI  29
PORT HOPE        N/A     34  34 100 NW9       29.92R WCI  27
PORT HURON     CLOUDY    36  36 100 W3        29.95R
TRI CITIES     CLOUDY    35  35 100 W7        29.96R FOG     WCI  29
MIDLAND        CLOUDY    36  34  95 W3        29.95R FOG
TROY           DRIZZLE   37  35  91 W6        29.98R WCI  33
SAGINAW HB     CLOUDY    36  32  87 W5        29.96R FOG     WCI  32
$$
MIZ043>046-050>051-056>058-064>065-071>073-077>080-181100-
SOUTHWEST LOWER MICHIGAN

CITY           SKY/WX    TMP DP  RH WIND       PRES   REMARKS
BATTLE CREEK   CLOUDY    35  35 100 W10       30.01R FOG     WCI  27
BENTON HARBOR  CLOUDY    36  34  92 W10       30.05R FOG     WCI  28
BIG RAPIDS     FOG       34  33  96 CALM      29.95R VSB 3/4
COLDWATER      CLOUDY    35  35 100 W10       30.01R FOG     WCI  27
FREMONT        FOG       35  35 100 W5        29.98R VSB 1/2 WCI  31
HOLLAND        CLOUDY    36  34  92 W6        30.02R WCI  31
GRAND RAPIDS   FOG       35  34  96 W9        30.00R VSB 1/2 WCI  28
IONIA          CLOUDY    35  35 100 W8        29.98R FOG     WCI  28
KALAMAZOO      CLOUDY    36  33  89 W9        30.02R FOG     WCI  29
LUDINGTON      CLOUDY    36  36 100 W5        29.97S FOG     WCI  32
MARSHALL       CLOUDY    35  34  98 W8        30.00R FOG     WCI  28
MOUNT PLEASANT CLOUDY    35  34  99 W3        29.95R FOG
MUSKEGON       CLOUDY    36  35  96 W8        30.01R WCI  30
SOUTH HAVEN    CLOUDY    36  36  99 W7        30.03R FOG     WCI  30
$$
MIZ016>042-181100-
NORTHERN LOWER MICHIGAN

CITY           SKY/WX    TMP DP  RH WIND       PRES   REMARKS
ALPENA         FOG       33  32  96 NW3       29.94R VSB 3/4
BELLAIRE       CLOUDY    32  32  99 CALM      29.95S FOG
CADILLAC       CLOUDY    33  32  96 W3        29.92S FOG
CHARLEVOIX     CLOUDY    33  33 100 CALM      29.96S
FRANKFORT      CLOUDY    35  34  98 W5        29.96S WCI  31
GAYLORD        CLOUDY    33  29  85 W6        29.90S WCI  28
GRAYLING       CLOUDY    34  33  96 W3        29.92F FOG
HARBOR SPRINGS CLOUDY    33  32  98 CALM      29.93S FOG
HOUGHTON LAKE  CLOUDY    33  32  96 NW5       29.92S WCI  29
MANISTEE       CLOUDY    35  34  96 W3        29.97R
OSCODA         CLOUDY    34  33  97 CALM      29.93R FOG
PELLSTON       CLOUDY    32  29  88 CALM      29.93R
ROGERS CITY    CLOUDY    33  32  96 CALM      29.93F FOG
TRAVERSE CITY  CLOUDY    35  33  92 CALM      29.94S FOG
$$
MIZ007>008-015-181100-
EASTERN UPPER MICHIGAN

CITY           SKY/WX    TMP DP  RH WIND       PRES   REMARKS
KINROSS        CLOUDY    29  28  96 SW6       29.90F FOG     WCI  23
MACKINAC ISLAN CLOUDY    31  31 100 SW5       29.92R WCI  26
NEWBERRY       CLOUDY    28  28  96 SW8       29.89R WCI  20
S. S. MARIE    CLOUDY    29  26  89 SW7       29.90R FOG     WCI  22
MUNISING         N/A     27  25  92 S7        29.88S WCI  19
$$
MIZ004>006-011>014-085-181100-
CENTRAL UPPER MICHIGAN

CITY           SKY/WX    TMP DP  RH WIND       PRES   REMARKS
MANISTIQUE     CLOUDY    32  31  96 SW6       29.91S WCI  26
ESCANABA       CLOUDY    33  32  96 SW7       29.92F WCI  27
SAWYER-GWINN   CLOUDY    21  19  95 SW6       29.87R WCI  13
$$
MIZ001>003-009>011-084-181100-
WESTERN UPPER MICHIGAN

CITY           SKY/WX    TMP DP  RH WIND       PRES   REMARKS
IRON MOUNTAIN  CLOUDY    14   9  80 CALM      29.88R HAZE
HOUGHTON       CLEAR     26  21  81 CALM      29.79F
COPPER HARBOR    N/A     28  24  85 VRB3      29.79F
IRONWOOD       CLOUDY    29  23  78 SW13      29.84S WCI  19
$$

ABBREVIATIONS USED IN REMARKS
   TC - TEMPERATURE IN CELSIUS
  WCI - WIND CHILL INDEX
   HX - HEAT INDEX
  VSB - VISIBILITY




USA.gov is the U.S. government's official web portal to all federal, state and local government web resources and services.